Regional Weather Roundup
Issued by NWS

Home | Current Version | Previous Version | Graphics & Text | Print | Product List | Glossary On
Versions: 1 2 3 4 5 6 7 8 9 10 11 12 13 14 15 16 17 18 19 20 21 22 23 24 25 26 27 28 29 30 31 32 33 34 35 36 37 38 39 40 41 42 43 44 45 46 47 48 49 50
000
ASUS45 KCYS 011410
RWRWY

WYOMING REGIONAL WEATHER ROUNDUP
NATIONAL WEATHER SERVICE CHEYENNE WY
700 AM MST SUN FEB 01 2015

NOTE:  "FAIR" INDICATES FEW OR NO CLOUDS BELOW 12,000 FEET
WITH NO SIGNIFICANT WEATHER AND/OR OBSTRUCTIONS TO VISIBILITY.

WYZ001-011500-
YELLOWSTONE NATIONAL PARK

CITY           SKY/WX    TMP DP  RH WIND       PRES   REMARKS
LK YELLOWSTONE   N/A      4   0  83 CALM      30.14R
W YELLOWSTONE  NOT AVBL

$$
WYZ002>013-054>058-071-098>099-011500-
NORTHERN WYOMING

CITY           SKY/WX    TMP DP  RH WIND       PRES   REMARKS
JACKSON        MOCLDY     1   1 100 N8        30.17S WCI -12
CODY           CLOUDY    10   9  92 NE3       30.22R
GREYBULL       FAIR      11   6  81 W7        30.29R WCI   0
WORLAND        CLOUDY    15   9  76 NE7       30.28R WCI   5
SHERIDAN       CLOUDY    10   3  73 W10       30.32R WCI  -4
BUFFALO        CLOUDY     8   3  80 NW12G24   30.23R WCI  -7
GILLETTE       CLOUDY     5   1  83 N10       30.27R WCI -10
HULETT           N/A    N/A N/A N/A MISG        N/A
NEWCASTLE      FAIR       5  -2  72 MISG      30.23R

$$
WYZ014>020-022>026-101>103-011500-
CENTRAL WYOMING

CITY           SKY/WX    TMP DP  RH WIND       PRES   REMARKS
BIG PINEY      FAIR       8   2  76 CALM      30.11R
PINEDALE       FAIR       5   1  85 W6        30.10R WCI  -6
DUBOIS         FAIR      19   7  58 W13       30.08S WCI   7
LANDER         CLOUDY    20  16  84 NE7       30.15R WCI  11
RIVERTON       FLURRIES  20  16  84 CALM      30.17R
CASPER         CLOUDY    12   7  80 NE6       30.19R WCI   3
DOUGLAS        CLOUDY    14   6  70 NW15      30.19R WCI  -1

$$
WYZ021-027>030-104>119-011500-
SOUTHERN WYOMING

CITY           SKY/WX    TMP DP  RH WIND       PRES   REMARKS
EVANSTON       FAIR      22  17  81 SW8       30.14S WCI  12
FORT BRIDGER   FAIR      26  18  71 W15       30.14S WCI  14
ROCK SPRINGS   FAIR      21  11  65 W13       30.10S WCI   9
DIXON          FAIR      15  13  90 E3        30.15R
RAWLINS        CLOUDY    20  15  81 NW7       30.09R WCI  11
SARATOGA       CLOUDY    19  16  86 CALM      30.09R
LARAMIE        CLOUDY    17  12  80 NW17      30.02R WCI   1
CHEYENNE       CLOUDY    14  10  84 N16G22    30.04R WCI  -2
TORRINGTON     CLOUDY    17   7  64 N15G23    30.18R WCI   2
PINE BLUFFS    FAIR      18  12  79 N17G24    30.10R WCI   2

$$



USA.gov is the U.S. government's official web portal to all federal, state and local government web resources and services.